ROMMA est une association bénévole à but non lucratif. Votre soutien est indispensable : ADHERER à ROMMA ou FAIRE un DON

Nice - (06, Alpes-Maritimes)

Côte-d'Azur (190 m)   Longitude: 07° 14' E   Latitude: 43° 43' N Station partenaire n°136
 

Détail journalier du     <<     >>

Température Precipitation Humidité Pression Vent Dir Rafale Dir. rafale Ensol.
Heure (°C) (mm) (%) (hPa) (km/h) (km/h) (min)
01:00 14.907510194N15N0
02:00 14.907610196NO16NO0
03:00 15.207510193NNO13NNO0
04:00 15.707210196NNO18NNO0
05:00 14.907910196NO24NO0
06:00 14.408410196NNO18NNO0
07:00 13.908510193N11N0
08:00 14.50.28010193N13N0
09:00 15.207710203N11N0
10:00 16.407410202N11NNO0
11:00 19.306610203N11N50
12:00 20.306810205SO15OSO60
13:00 20.807010209SSE21SSE60
14:00 18.308010198SSE19SSE0
15:00 17.908310196S15SSE0
16:00 17.908510193SSO10SSO0
17:00 17.908310193SSO10SSO0
18:00 17.608410192OSO11OSO0
19:00 17.208210194OSO13OSO0
20:00 16.208410191NO5O0
21:00 16.5082101900---0
22:00 15.308510191---6N0
23:00 15.408510191NNE8N0
minuit 15.108410193N13NNO0

Graphique du 17-10-2019

 

Serveur OMMA